CAP8901 KSUE-KSUE

Flight info

Callsign CAP8901
Flight time N/A
Altitude 4500
Route DCT
Aircraft C172/L-S/L

Departure

Time 2026-05-04 02:19
Airport Door County Cherryland Airport (KSUE)

Arrival

Time N/A
Airport Door County Cherryland Airport (KSUE)
Time Latitude Longitude Altitude Speed Heading
2026-05-04 02:12 44.84186 -87.42471 724 ft 0 kts 190°
2026-05-04 02:15 44.84179 -87.42434 723 ft 9 kts 41°
2026-05-04 02:15 44.84253 -87.42403 722 ft 15 kts 18°
2026-05-04 02:16 44.84383 -87.42362 722 ft 23 kts 11°
2026-05-04 02:16 44.84464 -87.42280 721 ft 13 kts 94°
2026-05-04 02:16 44.84458 -87.42102 721 ft 23 kts 94°
2026-05-04 02:16 44.84446 -87.41828 720 ft 31 kts 93°
2026-05-04 02:17 44.84432 -87.41487 721 ft 38 kts 92°
2026-05-04 02:17 44.84410 -87.41368 722 ft 7 kts 195°
2026-05-04 02:17 44.84406 -87.41385 721 ft 0 kts 353°
2026-05-04 02:18 44.84431 -87.41411 720 ft 8 kts 271°
2026-05-04 02:18 44.84443 -87.41736 720 ft 57 kts 273°
2026-05-04 02:19 44.84464 -87.42439 784 ft 80 kts 272°
2026-05-04 02:19 44.84498 -87.43193 1051 ft 75 kts 274°
2026-05-04 02:19 44.84502 -87.43925 1280 ft 74 kts 269°
2026-05-04 02:19 44.84720 -87.44594 1457 ft 82 kts 318°
2026-05-04 02:20 44.85177 -87.44990 1727 ft 77 kts 322°
2026-05-04 02:20 44.85600 -87.45350 1910 ft 81 kts 15°
2026-05-04 02:20 44.86090 -87.45104 2114 ft 75 kts 342°
2026-05-04 02:20 44.86596 -87.45292 2308 ft 78 kts 341°
2026-05-04 02:21 44.87138 -87.45112 2490 ft 87 kts 26°
2026-05-04 02:21 44.87687 -87.44670 2660 ft 94 kts 28°
2026-05-04 02:21 44.88261 -87.44198 2830 ft 97 kts 28°
2026-05-04 02:21 44.88845 -87.43716 3010 ft 98 kts 28°
2026-05-04 02:22 44.89437 -87.43227 3186 ft 99 kts 28°
2026-05-04 02:22 44.90033 -87.42736 3362 ft 99 kts 28°
2026-05-04 02:22 44.90626 -87.42242 3546 ft 98 kts 33°
2026-05-04 02:22 44.91096 -87.41550 3744 ft 97 kts 46°
2026-05-04 02:23 44.91538 -87.40845 3938 ft 95 kts 47°
2026-05-04 02:23 44.91968 -87.40153 4135 ft 93 kts 47°
2026-05-04 02:23 44.92387 -87.39478 4322 ft 90 kts 47°
2026-05-04 02:23 44.92799 -87.38815 4498 ft 92 kts 47°
2026-05-04 02:24 44.93240 -87.38095 4503 ft 99 kts 47°
2026-05-04 02:24 44.93695 -87.37363 4506 ft 99 kts 47°
2026-05-04 02:24 44.94152 -87.36626 4510 ft 101 kts 47°
2026-05-04 02:24 44.94620 -87.35874 4508 ft 102 kts 47°
2026-05-04 02:25 44.95093 -87.35114 4507 ft 104 kts 47°
2026-05-04 02:25 44.95573 -87.34348 4510 ft 104 kts 47°
2026-05-04 02:25 44.96055 -87.33572 4505 ft 105 kts 44°
2026-05-04 02:25 44.96672 -87.33072 4501 ft 104 kts 24°
2026-05-04 02:26 44.97329 -87.32627 4501 ft 103 kts 23°
2026-05-04 02:26 44.97969 -87.32198 4500 ft 103 kts 23°
2026-05-04 02:26 44.98615 -87.31765 4501 ft 103 kts 23°
2026-05-04 02:26 44.99258 -87.31335 4497 ft 102 kts 23°
2026-05-04 02:27 44.99900 -87.30905 4497 ft 102 kts 23°
2026-05-04 02:27 45.00545 -87.30473 4501 ft 103 kts 24°
2026-05-04 02:27 45.01198 -87.30038 4503 ft 104 kts 23°
2026-05-04 02:27 45.01851 -87.29603 4502 ft 104 kts 22°
2026-05-04 02:28 45.02506 -87.29171 4504 ft 104 kts 24°
2026-05-04 02:28 45.03160 -87.28734 4503 ft 104 kts 24°
2026-05-04 02:28 45.03813 -87.28302 4501 ft 103 kts 24°
2026-05-04 02:28 45.04460 -87.27858 4499 ft 103 kts 24°
2026-05-04 02:29 45.05106 -87.27425 4500 ft 103 kts 23°
2026-05-04 02:29 45.05757 -87.26990 4499 ft 104 kts 24°
2026-05-04 02:29 45.06407 -87.26556 4500 ft 103 kts 23°
2026-05-04 02:29 45.07058 -87.26122 4501 ft 103 kts 23°
2026-05-04 02:30 45.07603 -87.25490 4493 ft 106 kts 72°
2026-05-04 02:30 45.07383 -87.24588 4501 ft 101 kts 151°
2026-05-04 02:30 45.06766 -87.24679 4509 ft 93 kts 232°
2026-05-04 02:30 45.06765 -87.25510 4514 ft 93 kts 311°
2026-05-04 02:31 45.07384 -87.25609 4509 ft 102 kts 31°
2026-05-04 02:31 45.07615 -87.24723 4511 ft 103 kts 111°
2026-05-04 02:31 45.07079 -87.24220 4510 ft 96 kts 191°
2026-05-04 02:31 45.06680 -87.24840 4514 ft 91 kts 272°
2026-05-04 02:32 45.07087 -87.25459 4513 ft 98 kts 352°
2026-05-04 02:32 45.07641 -87.24963 4512 ft 104 kts 70°
2026-05-04 02:32 45.07439 -87.24068 4507 ft 101 kts 150°
2026-05-04 02:32 45.06801 -87.24092 4527 ft 94 kts 205°
2026-05-04 02:33 45.06185 -87.24448 4507 ft 97 kts 205°
2026-05-04 02:33 45.05561 -87.24806 4509 ft 97 kts 205°
2026-05-04 02:33 45.04936 -87.25163 4509 ft 97 kts 205°
2026-05-04 02:33 45.04311 -87.25521 4509 ft 97 kts 205°
2026-05-04 02:34 45.03682 -87.25880 4505 ft 98 kts 205°
2026-05-04 02:34 45.03052 -87.26242 4509 ft 98 kts 205°
2026-05-04 02:34 45.02422 -87.26602 4508 ft 98 kts 205°
2026-05-04 02:34 45.01789 -87.26966 4508 ft 98 kts 205°
2026-05-04 02:35 45.01158 -87.27327 4507 ft 98 kts 205°
2026-05-04 02:35 45.00526 -87.27689 4509 ft 98 kts 205°
2026-05-04 02:35 44.99891 -87.28053 4509 ft 99 kts 205°
2026-05-04 02:35 44.99256 -87.28416 4505 ft 98 kts 205°
2026-05-04 02:36 44.98624 -87.28778 4504 ft 98 kts 205°
2026-05-04 02:36 44.97983 -87.29107 4498 ft 100 kts 188°
2026-05-04 02:36 44.97425 -87.28593 4487 ft 105 kts 110°
2026-05-04 02:36 44.97617 -87.27671 4493 ft 102 kts 34°
2026-05-04 02:37 44.98247 -87.27687 4489 ft 95 kts 316°
2026-05-04 02:37 44.98330 -87.28513 4489 ft 93 kts 237°
2026-05-04 02:37 44.97738 -87.28745 4490 ft 99 kts 159°
2026-05-04 02:37 44.97419 -87.27929 4490 ft 103 kts 81°
2026-05-04 02:38 44.97880 -87.27285 4493 ft 97 kts
2026-05-04 02:38 44.98386 -87.27753 4493 ft 92 kts 284°
2026-05-04 02:38 44.98124 -87.28499 4490 ft 94 kts 204°
2026-05-04 02:38 44.97523 -87.28231 4491 ft 101 kts 126°
2026-05-04 02:39 44.97552 -87.27300 4494 ft 100 kts 47°
2026-05-04 02:39 44.98162 -87.27116 4493 ft 95 kts 330°
2026-05-04 02:39 44.98383 -87.27885 4491 ft 92 kts 250°
2026-05-04 02:39 44.97855 -87.28289 4493 ft 97 kts 171°
2026-05-04 02:40 44.97438 -87.27589 4487 ft 102 kts 92°
2026-05-04 02:40 44.97814 -87.26847 4491 ft 98 kts 13°
2026-05-04 02:40 44.98373 -87.27184 4489 ft 92 kts 294°
2026-05-04 02:40 44.98209 -87.27972 4490 ft 93 kts 214°
2026-05-04 02:41 44.97594 -87.27843 4490 ft 100 kts 134°
2026-05-04 02:41 44.97537 -87.26926 4494 ft 100 kts 54°
2026-05-04 02:41 44.98134 -87.26637 4490 ft 95 kts 335°
2026-05-04 02:41 44.98404 -87.27365 4492 ft 90 kts 252°
2026-05-04 02:42 44.97917 -87.27888 4504 ft 92 kts 204°
2026-05-04 02:42 44.97318 -87.28241 4507 ft 95 kts 205°
2026-05-04 02:42 44.96699 -87.28596 4508 ft 96 kts 205°
2026-05-04 02:42 44.96279 -87.28836 4509 ft 96 kts 205°
2026-05-04 02:43 44.95658 -87.29191 4510 ft 97 kts 205°